Погода Санкт-Петербург

Погода Санкт-Петербург : погода сейчас, прогноз погоды и архив. Всё, что Вы хотите узнать о погоде Санкт-Петербург!

Хотите узнать прогноз погоды в Санкт-Петербурге? Тогда Вам сюда: Погода в Санкт-Петербурге

Поиск расширенной информации на нашем сайте:

Другие новости

Новости СМИ2

Главная страница сайта

Новости сайта

03.07.2017

Напоминаем, что на нашем специализированном сайте Метеоцентр.Азия вы можете получить высокодетализированные автоматические прогнозы погоды по пунктам России, СНГ и мира в авиационном формате (включающие направление и скорость ветра, видимость, явления погоды, количество и форму облачности, нижнюю и верхнюю границу облачности).


Погода Санкт-Петербург - сегодня

Время (UTC), дата Ветер
(°,м/с) 
Видим.   Явления Облачность Т
(°С)
Тd
(°С)
f(%) Тe
(°С)
Pmin
(гПа)
dP
(гПа)
Po
(мм)
O2
(г/м3)
Тmin Tmax R s Состояние
почвы
09 17.05.18 320 (СЗ) 10 км    4/1 300 м верхняя 
[Cu hum|Ci fib]
+19.6 +8.5 49 +21  1013.2  -0.6  759  284           
15 17.05.18 110 (В) 10 км    3/3 600 м 
[Cu hum]
+22.5 +7.2 37 +23  1010.4  -1.4  757  281           
18 17.05.18 тихо ()   10 км    ясно 
+19 +8.7 51 +19  1010.6  0.2  757  284    +23       
21 17.05.18 тихо ()   10 км    ясно 
+15.5 +8.9 65 +16  1010.6  757  287           
00 18.05.18 тихо ()   10 км    ясно 
+12.3 +9.9 85 +13  1009.4  -1.2  757  290           
09 18.05.18 240 (ЮЗ) 10 км    4/3 1000 м средняя 
[Cu hum|As op]
+20.8 +10.1 50 +22  1008.7  756  281           
09 19.05.18 040 (СВ) 2{10}  10 км    6/3 600 м средняя, верхняя 
[Cu hum|Ac As|Ci fib]
+13.2 -1.6 36 +14  1015.8  1.1  761  293           
15 19.05.18 030 (СВ) 3{10}  10 км    ясно 
+17.1 -2.9 25 +18  1017  0.7  762  289           
18 19.05.18 020 (С) 10 км    ясно 
+14.8 -1.5 33 +16  1018.1  1.1  763  292    +17.2       
21 19.05.18 тихо ()   10 км    ясно 
+10.2 +2.6 59 +10  1019.5  1.3  764  296           
00 20.05.18 тихо ()   10 км    ясно 
+7.8 +3.9 76 +8  1020.9  1.4  765  299           
09 20.05.18 250 (З) 10 км    4/3 600 м верхняя 
[Cu hum|Ci fib]
+17.9 +3.5 38 +18  1024.5  0.7  768  290           
12 20.05.18 270 (З) 10 км    1/1 600 м 
[Cu hum]
+19.5 +0.2 27 +20  1024.7  0.1  768  289           
15 20.05.18 260 (З) 10 км    4/1 1000 м верхняя 
[Cu hum|Ci]
+18 +0.9 32 +18  1024.9  0.1  768  290           
21 20.05.18 260 (З) 10 км    4/0 средняя, верхняя 
[As op|Cs]
+13 +6.9 66 +14  1026.6  1.1  769  295           
00 21.05.18 260 (З) 10 км    3/0 средняя, верхняя 
[As op|Cs]
+12.3 +8.8 79 +14  1027.5  770  295           
09 21.05.18 230 (ЮЗ) 10 км    ясно 
+20.6 +3.1 31 +21  1029.8  0.5  772  289           
12 21.05.18 310 (СЗ) 10 км    ясно 
+23.4 +1.8 24 +23  1028.9  0.2  771  286           
15 21.05.18 300 (СЗ) 10 км    ясно 
+22.8 +1.8 25 +23  1028  -1  770  286           
18 21.05.18 280 (З) 10 км    ясно 
+18.3 +6 44 +20  1027.4  -0.6  770  290    +23.5       
21 21.05.18 тихо ()   10 км    ясно 
+12.6 +7.2 70 +13  1027.5  0.1  770  295           
00 22.05.18 тихо ()   10 км    ясно 
+11.2 +7.8 80 +11  1027.4  0.1  770  297           
09 22.05.18 110 (В) 10 км    1/1 600 м 
[Cu hum]
+25.2 +3.3 24 +25  1024.4  -2  768  283           
15 22.05.18 200 (Ю) 10 км    8/5 600 м средняя, верхняя 
[Sc diur, vesp|Ac trans|Ci fib]
+23.8 +4.4 28 +24  1020.3  -1.7  765  283           
21 22.05.18 220 (ЮЗ) 10 км    9/8 450 м средняя 
[Sc|Ac As]
+18.3 +4.9 41 +19  1019.1  -0.5  764  288           
Время (UTC), дата Ветер
(°,м/с) 
Видим.   Явления Облачность Т
(°С)
Тd
(°С)
f(%) Тe
(°С)
Pmin
(гПа)
dP
(гПа)
Po
(мм)
O2
(г/м3)
Тmin Tmax R s Состояние
почвы

Для получения пояснительной информации подведите курсор к названию столбца.

ПОГОДА Санкт-Петербург - архив

Всё, что Вы хотите узнать о погоде Санкт-Петербург - удобно и подробно!

Выберите нужную дату (начиная с 1 января 2015* года) и нажмите кнопку "Найти".
Будут отображены архивные сводки погоды по пункту Санкт-Петербург, начиная с указанной даты.


Отображать данные в формате CSV (для использования в таблицах Excel)


Внимание! Наш архив погоды предназначен исключительно для личного некоммерческого использования в познавательных целях. Если Вам необходимы официальные справки о состоянии погоды (для производственных, юридических, коммерческих и т.п. целей), обращайтесь в органы Росгидромета.

*Примечание: данная дата относится к архиву по метеостанциям СССР (Россия, СНГ, Балтия).
Архив по метеостанциям Зарубежной Европы и Азии (кроме Китая) хранится 10 дней, по другим регионам земного шара (Китай, Африка, Америка, Австралия, Океания) - 1 день.

Санкт-Петербург - район местоположения метеостанции


Название, широта, долгота, высота метеостанции:
Санкт-Петербург (ИЦП) 60°ш. 30.3°д. 6 м над ур. моря [Российская Федерация]

Дополнительная информация

В oтличие oт бoльшинства пoгoдных сайтoв мы публикуем пoдрoбную метеoинфoрмацию в детальнoм прoфессиoнальнoм фoрмате.

Характеристики температуры и влажнoсти вoздуха измеряются на высoте 2 м в тени вдали oт зданий и деревьев.
Скoрoсть ветра измеряется на высoте 10 м (на урoвне рoста челoвека скoрoсть ветра ниже в 1.5-2 раза). Если метеoстанция нахoдится в гoрoде или в лесу, тo скoрoсть ветра занижена на 2-4 м/с пo сравнению с oткрытым местoм. Скoрoсть ветра над акватoриями крупных рек и oзёр, а также на вершинах хoлмoв на 2-5 м/с выше, чем в oбычных услoвиях.
Атмoсфернoе давление в разных тoчках местнoсти мoжет значительнo oтличаться oт давления на метеoстанции, в зависимoсти oт услoвий рельефа (при пoдъёме на 10 м давление пoнижается примернo на 1 мм рт.ст.).